DW0307 Weather Reports


time (UTC)temp
F
wind
direction
speed
knots
gust
knots
rain 1hr
in
rain 24hr
in
rain mn
in
humidity
%
barometer
mb
20260905223105 61 0 2.6 13.0 0.00 0.00 0.00 49 1020.2
20260905221602 61 232 4.3 15.6 0.00 0.00 0.00 50 1020.3
20260905220056 61 246 0.9 13.0 0.00 0.00 0.00 52 1020.3
20260905214602 60 223 6.1 13.0 0.00 0.00 0.00 57 1020.1
20260905213104 61 221 10.4 18.2 0.00 0.00 0.00 58 1020.0
20260905211552 61 213 6.1 13.0 0.00 0.00 0.00 58 1020.1
20260905210103 62 227 6.1 13.9 0.00 0.00 0.00 55 1020.0
20260905204558 61 252 7.0 12.2 0.00 0.00 0.00 53 1020.0
20260905203053 61 227 5.2 8.7 0.00 0.00 0.00 56 1020.2
20260905201552 60 251 5.2 11.3 0.00 0.00 0.00 58 1020.3
20260905200100 61 225 3.5 9.6 0.00 0.00 0.00 60 1020.1
20260905194556 62 219 9.6 22.6 0.00 0.00 0.00 55 1020.0
20260905193051 60 263 6.1 8.7 0.00 0.00 0.00 55 1019.9
20260905191600 57 290 5.2 11.3 0.00 0.00 0.00 65 1020.0
20260905184602 58 245 4.3 7.8 0.00 0.00 0.00 64 1019.9
20260905183053 56 183 2.6 5.2 0.00 0.00 0.00 68 1019.6
20260905181607 56 313 0.9 3.5 0.00 0.00 0.00 68 1019.5
20260905180115 57 257 4.3 8.7 0.00 0.00 0.00 67 1019.2
20260905174555 58 27 4.3 10.4 0.00 0.00 0.00 65 1018.8
20260905173112 60 231 3.5 9.6 0.00 0.00 0.00 61 1018.4
20260905171554 61 263 9.6 16.5 0.00 0.00 0.00 59 1018.2
20260905170049 63 248 11.3 18.2 0.00 0.00 0.00 57 1018.2
20260905164602 64 238 12.2 19.1 0.00 0.00 0.00 55 1018.0
20260905163102 64 258 13.9 20.9 0.00 0.00 0.00 54 1017.9
20260905161601 65 260 12.2 21.7 0.00 0.00 0.00 54 1017.8
20260905160100 66 246 16.5 23.5 0.00 0.00 0.00 52 1017.8
20260905154605 67 250 14.8 22.6 0.00 0.00 0.00 51 1017.8
20260905153047 67 257 16.5 24.3 0.00 0.00 0.00 50 1017.6
20260905151559 68 252 17.4 25.2 0.00 0.00 0.00 50 1017.6
20260905150055 69 250 16.5 24.3 0.00 0.00 0.00 49 1017.6
20260905144550 69 232 16.5 23.5 0.00 0.00 0.00 47 1017.8
20260905143102 69 250 14.8 25.2 0.00 0.00 0.00 52 1017.7
20260905141559 69 250 14.8 22.6 0.00 0.00 0.00 52 1017.9
20260905140100 68 249 15.6 26.9 0.00 0.00 0.00 54 1017.7
20260905134558 70 252 15.6 21.7 0.00 0.00 0.00 51 1017.8
20260905133059 69 269 14.8 25.2 0.00 0.00 0.00 52 1017.8
20260905131555 69 267 16.5 21.7 0.00 0.00 0.00 53 1017.7
20260905130054 70 234 11.3 18.2 0.00 0.00 0.00 53 1017.6
20260905124601 71 246 10.4 16.5 0.00 0.00 0.00 54 1017.5
20260905123105 70 257 13.0 22.6 0.00 0.00 0.00 55 1017.6
20260905121556 70 239 13.0 20.0 0.00 0.00 0.00 56 1017.6
20260905120111 70 229 10.4 20.0 0.00 0.00 0.00 59 1017.9
20260905114608 69 225 8.7 19.1 0.00 0.00 0.00 61 1017.7
20260905113101 68 258 11.3 21.7 0.00 0.00 0.00 60 1017.9
20260905111655 67 265 13.0 23.5 0.00 0.00 0.00 62 1017.9
20260905110058 64 265 12.2 21.7 0.00 0.00 0.00 67 1017.7
20260905104555 63 246 8.7 12.2 0.00 0.00 0.00 70 1018.2
20260905103104 63 251 1.7 7.0 0.00 0.00 0.00 72 1018.3
20260905101549 61 215 3.5 18.2 0.00 0.00 0.00 74 1017.8
20260905100101 61 248 13.0 20.0 0.00 0.00 0.00 76 1018.7
20260905094551 60 267 15.6 20.9 0.00 0.00 0.00 74 1017.2
20260905093107 60 254 15.6 21.7 0.00 0.00 0.00 75 1017.3
20260905091601 61 257 15.6 24.3 0.00 0.00 0.00 75 1016.8
20260905090057 60 236 12.2 17.4 0.00 0.00 0.00 76 1016.9
20260905084603 61 261 20.0 32.2 0.00 0.00 0.00 72 1017.6
20260905083100 62 248 15.6 23.5 0.00 0.00 0.00 68 1016.7
20260905081559 65 251 18.2 31.3 0.00 0.00 0.00 62 1016.7
20260905080101 67 245 11.3 18.2 0.00 0.00 0.00 60 1016.9
20260905074609 69 227 8.7 15.6 0.00 0.00 0.00 60 1016.6
20260905073056 66 0 4.3 19.1 0.00 0.00 0.00 64 1016.2
20260905071552 66 199 5.2 11.3 0.00 0.00 0.00 70 1017.1
20260905070055 65 126 0.9 5.2 0.00 0.00 0.00 74 1016.8
20260905064609 64 360 3.5 7.0 0.00 0.00 0.00 76 1017.2
20260905063058 63 26 5.2 9.6 0.00 0.00 0.00 78 1016.8
20260905061553 62 302 4.3 12.2 0.00 0.00 0.00 78 1016.4
20260905060050 61 242 4.3 13.9 0.00 0.00 0.00 81 1016.4
20260905054600 59 209 0.9 3.5 0.00 0.00 0.00 84 1016.4
20260905053055 58 232 0.0 2.6 0.00 0.00 0.00 85 1016.2
20260905051553 57 0 0.9 4.3 0.00 0.00 0.00 85 1016.2
20260905050056 57 252 3.5 6.1 0.00 0.00 0.00 84 1015.8
20260905044550 58 273 0.0 3.5 0.00 0.00 0.00 82 1015.4
20260905043058 59 238 0.0 4.3 0.00 0.00 0.00 81 1015.3
20260905041558 60 64 0.0 5.2 0.00 0.00 0.00 81 1015.3
20260905040050 61 0 2.6 8.7 0.00 0.00 0.00 82 1015.1
20260905034604 61 229 5.2 9.6 0.00 0.00 0.00 82 1015.2
20260905033059 62 113 2.6 5.2 0.00 0.00 0.00 80 1014.7
20260905031612 63 118 0.0 2.6 0.00 0.00 0.00 79 1014.8
20260905030115 63 49 3.5 8.7 0.00 0.00 0.00 77 1014.6
20260905024606 65 124 5.2 11.3 0.00 0.00 0.00 70 1014.2
20260905023102 65 66 2.6 12.2 0.00 0.00 0.00 70 1013.9
20260905021606 65 46 2.6 11.3 0.00 0.00 0.00 70 1013.6
20260905020055 66 213 8.7 13.9 0.00 0.00 0.00 69 1013.2
20260905014557 65 213 9.6 15.6 0.00 0.00 0.00 70 1012.9
20260905013057 65 217 10.4 15.6 0.00 0.00 0.00 70 1013.0
20260905011555 64 215 11.3 16.5 0.00 0.00 0.00 72 1013.0
20260905010103 62 221 10.4 15.6 0.00 0.00 0.00 76 1013.2
20260905004551 59 234 5.2 7.8 0.00 0.00 0.00 79 1013.3
20260905003059 59 242 4.3 7.0 0.00 0.00 0.00 77 1013.3
20260905001603 61 244 5.2 7.8 0.00 0.00 0.00 75 1013.4
20260905000050 62 249 7.0 9.6 0.00 0.00 0.00 74 1013.4
20260904234553 63 238 8.7 12.2 0.00 0.00 0.00 74 1013.6
20260904233048 62 247 8.7 12.2 0.00 0.00 0.00 74 1013.9
20260904231556 63 248 7.8 12.2 0.00 0.00 0.00 72 1013.6
20260904230051 64 228 10.4 13.0 0.00 0.00 0.00 72 1013.8
20260904224601 64 250 10.4 15.6 0.00 0.00 0.00 72 1013.8